Location: Miles
(41.4492°N, 81.6087°W)
Time: 06:50:28
(UTC+00:00)

Transit 2A - Pass Details

Date: 18 September 2024
Orbit: 590 x 960 km, 66.7° (Epoch: 09 October)

Event Time Altitude Azimuth Distance (km) Brightness Sun altitude
Rises 21:08:53 0° 146° (SSE) 3,394 9.2 25.0°
Reaches altitude 10° 21:13:48 10° 109° (ESE) 2,562 8.4 24.2°
Maximum altitude 21:14:54 11° 98° (E) 2,545 8.3 24.0°
Drops below altitude 10° 21:16:01 10° 88° (E) 2,601 8.3 23.8°
Sets 21:21:12 0° 52° (NE) 3,616 8.9 22.8°
